Modesto, CA

3:40 AM PST on November 22, 2019 (GMT -0800)
Modesto City-County-Sham

Weather History for KMOD - October, 2019

Change the Weather History Date:

Friday, October 18, 2019

  Actual Average Record
Temperature  
Mean Temperature 61 °F -  
Max Temperature 74 °F 78 °F 92 °F (1988)
Min Temperature 47 °F 52 °F 38 °F (1938)
Degree Days  
Heating Degree Days 4 2  
Month to date heating degree days 34 17  
Since 1 July heating degree days 46 20  
Cooling Degree Days 0 2  
Month to date cooling degree days 14 71  
Year to date cooling degree days 1717 1683  
Growing Degree Days 12 (Base 50)    
Moisture  
Dew Point 44 °F    
Average Humidity 57    
Maximum Humidity 77    
Minimum Humidity 37    
Precipitation  
Precipitation 0.00 in 0.02 in 0.33 in (1953)
Month to date precipitation 0.00 0.31  
Year to date precipitation 8.98 9.34  
Snow  
Snow 0.00 in - 0.00 in (2002)
Month to date snowfall 0.0  
Since 1 July snowfall 0.0  
Since 1 September snowfall 0.0  
Snow Depth 0.00 in    
Sea Level Pressure  
Sea Level Pressure 30.02 in    
Wind  
Wind Speed 10 mph (NW)    
Max Wind Speed 16 mph    
Max Gust Speed 20 mph    
Visibility 10 miles    
Events      
T = Trace of Precipitation, MM = Missing Value Source: NWS Daily Summary

Daily Weather History Graph

Daily Weather History Graph

Search for Another Location

Airport or City:

Astronomy

Oct. 18, 2019 Rise Set
Actual Time 7:14 AM PDT 6:22 PM PDT
Civil Twilight 6:48 AM PDT 6:48 PM PDT
Nautical Twilight 6:17 AM PDT 7:19 PM PDT
Astronomical Twilight 5:47 AM PDT 7:49 PM PDT
Moon 9:47 PM PDT (10/18) 11:48 AM PDT (10/18)
Length of Visible Light 12h 00m
Length of Day
11h 07m
Waning Gibbous, 78% of the Moon is Illuminated
Oct 18
Waning Gibbous
Oct 21
Last Quarter
Oct 27
New
Nov 4
First Quarter
Nov 12
Full

Hourly Weather History & Observations

Time (PDT) Temp. Dew Point Humidity Pressure Visibility Wind Dir Wind Speed Gust Speed Precip Events Conditions
12:53 AM 57.9 °F 43.0 °F 58% 29.97 in 10.0 mi NW 13.8 mph - N/A   Clear
1:53 AM 57.9 °F 43.0 °F 58% 29.97 in 10.0 mi WNW 12.7 mph - N/A   Clear
2:53 AM 57.0 °F 43.0 °F 59% 29.97 in 10.0 mi WNW 11.5 mph - N/A   Clear
3:53 AM 57.0 °F 42.1 °F 57% 29.99 in 10.0 mi NW 11.5 mph - N/A   Clear
4:53 AM 57.0 °F 42.1 °F 57% 29.99 in 10.0 mi NW 10.4 mph - N/A   Clear
5:53 AM 53.1 °F 42.1 °F 66% 30.01 in 10.0 mi NNW 5.8 mph - N/A   Clear
6:53 AM 52.0 °F 43.0 °F 71% 30.03 in 10.0 mi NNE 4.6 mph - N/A   Clear
7:53 AM 52.0 °F 44.1 °F 74% 30.03 in 10.0 mi NNE 3.5 mph - N/A   Clear
8:53 AM 55.9 °F 44.1 °F 64% 30.06 in 10.0 mi North 3.5 mph - N/A   Clear
9:53 AM 62.1 °F 44.1 °F 52% 30.08 in 10.0 mi NNE 6.9 mph - N/A   Clear
10:53 AM 66.0 °F 44.1 °F 45% 30.06 in 10.0 mi NNW 5.8 mph - N/A   Clear
11:53 AM 66.9 °F 45.0 °F 45% 30.06 in 10.0 mi NW 8.1 mph - N/A   Clear
12:53 PM 71.1 °F 46.9 °F 42% 30.05 in 10.0 mi West 11.5 mph - N/A   Clear
1:53 PM 71.1 °F 46.9 °F 42% 30.02 in 10.0 mi NW 9.2 mph - N/A   Clear
2:53 PM 73.0 °F 48.9 °F 42% 30.01 in 10.0 mi Variable 6.9 mph - N/A   Clear
3:53 PM 73.9 °F 46.9 °F 38% 30.00 in 10.0 mi West 9.2 mph - N/A   Clear
4:53 PM 73.0 °F 46.9 °F 39% 30.00 in 10.0 mi NW 11.5 mph - N/A   Clear
5:53 PM 69.1 °F 43.0 °F 39% 30.00 in 10.0 mi WNW 10.4 mph - N/A   Clear
6:53 PM 64.0 °F 42.1 °F 45% 30.00 in 10.0 mi NW 11.5 mph - N/A   Clear
7:53 PM 62.1 °F 42.1 °F 48% 30.01 in 10.0 mi NW 10.4 mph - N/A   Clear
8:53 PM 60.1 °F 42.1 °F 51% 30.02 in 10.0 mi NW 6.9 mph - N/A   Clear
9:53 PM 57.9 °F 43.0 °F 58% 30.04 in 10.0 mi North 6.9 mph - N/A   Clear
10:53 PM 57.0 °F 43.0 °F 59% 30.05 in 10.0 mi North 5.8 mph - N/A   Clear
11:53 PM 55.0 °F 43.0 °F 64% 30.04 in 10.0 mi Calm Calm - N/A   Clear